Hollywood, FL

11:24 AM EST on December 08, 2016 (GMT -0500)
North Perry

Weather History for KHWO - January, 2013

Change the Weather History Date:

Thursday, January 3, 2013

  Actual Average (KFLL) Record (KFLL)
Temperature  
Mean Temperature 74 °F -  
Max Temperature 82 °F 77 °F 87 °F (1954)
Min Temperature 66 °F 61 °F 39 °F (2008)
Cooling Degree Days 9    
Growing Degree Days 24 (Base 50)    
Moisture  
Dew Point 65 °F    
Average Humidity 78    
Maximum Humidity 96    
Minimum Humidity 51    
Precipitation  
Precipitation 0.00 in - - ()
Sea Level Pressure  
Sea Level Pressure 30.10 in    
Wind  
Wind Speed 3 mph (SSE)    
Max Wind Speed 13 mph    
Max Gust Speed -    
Visibility 10 miles    
Events      
Averages and records for this station are not official NWS values.
T = Trace of Precipitation, MM = Missing Value Source: NWS Daily Summary

Daily Weather History Graph

Daily Weather History Graph

Search for Another Location

Airport or City:

Trip Planner

Search our weather history database for the weather conditions in past years. The results will help you decide how hot, cold, wet, or windy it might be!

Date:

Astronomy

Jan. 03, 2013 Rise Set
Actual Time 7:08 AM EST 5:42 PM EST
Civil Twilight 6:43 AM EST 6:07 PM EST
Nautical Twilight 6:14 AM EST 6:36 PM EST
Astronomical Twilight 5:46 AM EST 7:04 PM EST
Moon 11:35 PM EST (1/3) 10:57 AM EST (1/3)
Length of Visible Light 11h 24m
Length of Day
10h 34m
Waning Gibbous, 65% of the Moon is Illuminated
Jan 3
Waning Gibbous
Jan 4
Last Quarter
Jan 11
New
Jan 18
First Quarter
Jan 26
Full

Hourly Weather History & Observations

Time (EST) Temp. Heat Index Dew Point Humidity Pressure Visibility Wind Dir Wind Speed Gust Speed Precip Events Conditions
12:53 AM 71.1 °F - 66.0 °F 84% 30.08 in 10.0 mi Calm Calm - N/A   Mostly Cloudy
1:53 AM 70.0 °F - 66.9 °F 90% 30.08 in 10.0 mi NNW 4.6 mph - N/A   Mostly Cloudy
2:53 AM 69.1 °F - 66.0 °F 90% 30.07 in 10.0 mi North 3.5 mph - N/A   Mostly Cloudy
3:53 AM 68.0 °F - 66.0 °F 93% 30.07 in 10.0 mi Calm Calm - N/A   Partly Cloudy
4:19 AM 68.0 °F - 64.4 °F 88% 30.07 in 10.0 mi Calm Calm - N/A   Mostly Cloudy
4:28 AM 66.2 °F - 64.4 °F 94% 30.07 in 10.0 mi Calm Calm - N/A   Mostly Cloudy
4:42 AM 68.0 °F - 64.4 °F 88% 30.07 in 10.0 mi Calm Calm - N/A   Overcast
4:49 AM 68.0 °F - 66.2 °F 94% 30.07 in 10.0 mi Calm Calm - N/A   Overcast
4:53 AM 68.0 °F - 66.0 °F 93% 30.08 in 10.0 mi Calm Calm - N/A   Overcast
5:53 AM 68.0 °F - 64.9 °F 90% 30.09 in 10.0 mi Calm Calm - N/A   Mostly Cloudy
6:53 AM 68.0 °F - 64.9 °F 90% 30.10 in 10.0 mi Calm Calm - N/A   Overcast
7:53 AM 68.0 °F - 66.9 °F 96% 30.12 in 10.0 mi Calm Calm - N/A   Mostly Cloudy
8:53 AM 73.0 °F - 66.9 °F 81% 30.13 in 10.0 mi Calm Calm - N/A   Partly Cloudy
9:53 AM 77.0 °F - 66.9 °F 71% 30.14 in 10.0 mi Variable 4.6 mph - N/A   Clear
10:53 AM 77.0 °F - 64.9 °F 66% 30.13 in 10.0 mi SSE 8.1 mph - N/A   Scattered Clouds
11:53 AM 80.1 °F 81.7 °F 64.0 °F 58% 30.11 in 10.0 mi SSE 9.2 mph - N/A   Scattered Clouds
12:53 PM 82.0 °F 83.0 °F 62.1 °F 51% 30.08 in 10.0 mi South 10.4 mph - N/A   Clear
1:53 PM 81.0 °F 82.5 °F 64.0 °F 56% 30.06 in 10.0 mi SE 12.7 mph - N/A   Mostly Cloudy
2:53 PM 80.1 °F 81.5 °F 63.0 °F 56% 30.06 in 10.0 mi SSE 10.4 mph - N/A   Overcast
3:53 PM 81.0 °F 82.2 °F 63.0 °F 54% 30.06 in 10.0 mi SE 11.5 mph - N/A   Partly Cloudy
4:53 PM 79.0 °F - 63.0 °F 58% 30.08 in 10.0 mi SSE 8.1 mph - N/A   Clear
5:53 PM 75.9 °F - 64.9 °F 69% 30.10 in 10.0 mi SE 8.1 mph - N/A   Clear
6:53 PM 73.9 °F - 64.0 °F 71% 30.12 in 10.0 mi SSE 5.8 mph - N/A   Unknown
7:53 PM 73.0 °F - 64.9 °F 76% 30.14 in 10.0 mi SSE 6.9 mph - N/A   Clear
8:53 PM 73.0 °F - 64.9 °F 76% 30.15 in 10.0 mi Calm Calm - N/A   Clear
9:53 PM 71.1 °F - 66.0 °F 84% 30.16 in 10.0 mi Calm Calm - N/A   Scattered Clouds
10:53 PM 70.0 °F - 66.0 °F 87% 30.15 in 10.0 mi South 3.5 mph - N/A   Clear
11:53 PM 69.1 °F - 64.9 °F 87% 30.15 in 10.0 mi Calm Calm - N/A   Clear